,,Stat5,,Stat1,,Stat2,,Stat3,,Stat4,,Wind1,,Wind1,
time,status,PA1M_AVG,status,PR1M_SUM,status,RH1M_AVG,status,SR1M_AVG,status,TA1M_AVG,status,W1dAve1m,status,W1sAve1m,
2001-02-17, 00:00:00,VALID,919.157,VALID,0,VALID,94.1763,VALID,-0.0169808,VALID,20.1858,VALID,197,VALID,0.937922,
2001-02-17, 00:01:00,VALID,919.149,VALID,0,VALID,93.9678,VALID,-0.0169808,VALID,20.2534,VALID,190,VALID,0.622596,
2001-02-17, 00:02:00,VALID,919.132,VALID,0,VALID,93.688,VALID,-0.0169808,VALID,20.3016,VALID,223,VALID,1.04187,
2001-02-17, 00:03:00,VALID,919.101,VALID,0,VALID,93.5202,VALID,-0.0509425,VALID,20.3442,VALID,226,VALID,0.723758,
2001-02-17, 00:04:00,VALID,919.079,VALID,0,VALID,93.4782,VALID,-0.0339617,VALID,20.3528,VALID,214,VALID,0.995271,
2001-02-17, 00:05:00,VALID,919.049,VALID,0,VALID,93.4006,VALID,-0.0339617,VALID,20.3919,VALID,226,VALID,1.05709,
2001-02-17, 00:06:00,VALID,919.023,VALID,0,VALID,93.1641,VALID,-0.0169808,VALID,20.411,VALID,213,VALID,0.998661,
2001-02-17, 00:07:00,VALID,919.01,VALID,0,VALID,93.0026,VALID,-0.0509425,VALID,20.4476,VALID,212,VALID,0.946875,
2001-02-17, 00:08:00,VALID,919,VALID,0,VALID,92.85,VALID,-0.0169808,VALID,20.4562,VALID,208,VALID,0.833333,
2001-02-17, 00:09:00,VALID,918.999,VALID,0,VALID,92.6873,VALID,-0.0339617,VALID,20.4662,VALID,226,VALID,0.662977,
2001-02-17, 00:10:00,VALID,918.992,VALID,0,VALID,92.5092,VALID,-0.0169808,VALID,20.4923,VALID,213,VALID,1.11972,
2001-02-17, 00:11:00,VALID,918.988,VALID,0,VALID,92.3452,VALID,0,VALID,20.5015,VALID,216,VALID,1.06538,
2001-02-17, 00:12:00,VALID,918.99,VALID,0,VALID,92.068,VALID,-0.0509425,VALID,20.495,VALID,228,VALID,1.60304,
2001-02-17, 00:13:00,VALID,918.981,VALID,0,VALID,91.9548,VALID,0,VALID,20.5079,VALID,217,VALID,1.32918,
2001-02-17, 00:14:00,VALID,918.964,VALID,0,VALID,91.9701,VALID,-0.0169808,VALID,20.5111,VALID,228,VALID,1.0721,
2001-02-17, 00:15:00,VALID,918.961,VALID,0,VALID,92.026,VALID,-0.0339617,VALID,20.4982,VALID,212,VALID,0.690584,
2001-02-17, 00:16:00,VALID,918.94,VALID,0,VALID,92.0985,VALID,0,VALID,20.4856,VALID,231,VALID,0.842061,
2001-02-17, 00:17:00,VALID,918.924,VALID,0,VALID,92.1112,VALID,-0.0169808,VALID,20.4567,VALID,212,VALID,1.06021,
2001-02-17, 00:18:00,VALID,918.914,VALID,0,VALID,92.1138,VALID,-0.0169808,VALID,20.4145,VALID,235,VALID,1.21406,
2001-02-17, 00:19:00,VALID,918.915,VALID,0,VALID,92.0832,VALID,-0.0509425,VALID,20.3916,VALID,222,VALID,0.638363,
2001-02-17, 00:20:00,VALID,918.909,VALID,0,VALID,92.0985,VALID,-0.0679233,VALID,20.3921,VALID,187,VALID,0.777138,
2001-02-17, 00:21:00,VALID,918.887,VALID,0,VALID,92.0375,VALID,0,VALID,20.3725,VALID,186,VALID,0.780664,
2001-02-17, 00:22:00,VALID,918.868,VALID,0,VALID,91.9396,VALID,-0.0849042,VALID,20.3533,VALID,196,VALID,1.08433,
2001-02-17, 00:23:00,VALID,918.84,VALID,0,VALID,91.8264,VALID,0.0339617,VALID,20.3157,VALID,200,VALID,0.787054,
2001-02-17, 00:24:00,VALID,918.81,VALID,0,VALID,91.553,VALID,0.0339617,VALID,20.3227,VALID,201,VALID,1.51094,
2001-02-17, 00:25:00,VALID,918.807,VALID,0,VALID,91.2872,VALID,0.0679233,VALID,20.3093,VALID,187,VALID,1.36632,
2001-02-17, 00:26:00,VALID,918.806,VALID,0,VALID,91.2669,VALID,0.0679233,VALID,20.313,VALID,195,VALID,1.71441,
2001-02-17, 00:27:00,VALID,918.784,VALID,0,VALID,91.422,VALID,0.0509425,VALID,20.2966,VALID,201,VALID,0.755809,
2001-02-17, 00:28:00,VALID,918.808,VALID,0,VALID,91.2618,VALID,0.101885,VALID,20.2864,VALID,210,VALID,1.25863,
2001-02-17, 00:29:00,VALID,918.796,VALID,0,VALID,90.9858,VALID,0.0849042,VALID,20.2931,VALID,210,VALID,1.09519,
2001-02-17, 00:30:00,VALID,918.803,VALID,0,VALID,90.57,VALID,0.0849042,VALID,20.3095,VALID,211,VALID,1.49177,
2001-02-17, 00:31:00,VALID,918.809,VALID,0,VALID,90.1987,VALID,0.0849042,VALID,20.3446,VALID,215,VALID,1.21115,
2001-02-17, 00:32:00,VALID,918.81,VALID,0,VALID,90.0652,VALID,0.0339617,VALID,20.403,VALID,214,VALID,1.07327,
2001-02-17, 00:33:00,VALID,918.805,VALID,0,VALID,89.9622,VALID,0.0509425,VALID,20.4194,VALID,221,VALID,1.03187,
2001-02-17, 00:34:00,VALID,918.805,VALID,0,VALID,89.7638,VALID,0.101885,VALID,20.4251,VALID,204,VALID,1.21575,
2001-02-17, 00:35:00,VALID,918.785,VALID,0,VALID,89.6863,VALID,0.0849042,VALID,20.4676,VALID,211,VALID,0.883614,
2001-02-17, 00:36:00,VALID,918.771,VALID,0,VALID,89.6723,VALID,0.101885,VALID,20.4641,VALID,219,VALID,0.889569,
2001-02-17, 00:37:00,VALID,918.753,VALID,0,VALID,89.5324,VALID,0.101885,VALID,20.4703,VALID,224,VALID,0.507813,
2001-02-17, 00:38:00,VALID,918.715,VALID,0,VALID,89.526,VALID,0,VALID,20.485,VALID,212,VALID,0.486178,
2001-02-17, 00:39:00,VALID,918.684,VALID,0,VALID,89.39,VALID,-0.0339617,VALID,20.491,VALID,220,VALID,1.01743,
2001-02-17, 00:40:00,VALID,918.665,VALID,0,VALID,89.2501,VALID,0,VALID,20.5141,VALID,218,VALID,0.715763,
2001-02-17, 00:41:00,VALID,918.644,VALID,0,VALID,89.0823,VALID,0,VALID,20.5238,VALID,224,VALID,1.06229,
2001-02-17, 00:42:00,VALID,918.616,VALID,0,VALID,88.8152,VALID,0,VALID,20.5521,VALID,217,VALID,1.29033,
2001-02-17, 00:43:00,VALID,918.611,VALID,0,VALID,88.5876,VALID,-0.0339617,VALID,20.6016,VALID,208,VALID,1.23676,
2001-02-17, 00:44:00,VALID,918.574,VALID,0,VALID,88.5253,VALID,0.0169808,VALID,20.6463,VALID,187,VALID,0.611111,
2001-02-17, 00:45:00,VALID,918.559,VALID,0,VALID,88.5291,VALID,0.0169808,VALID,20.6463,VALID,188,VALID,0.889391,
2001-02-17, 00:46:00,VALID,918.539,VALID,0,VALID,88.5342,VALID,0,VALID,20.6366,VALID,206,VALID,0.667019,
2001-02-17, 00:47:00,VALID,918.526,VALID,0,VALID,88.7097,VALID,0,VALID,20.6366,VALID,214,VALID,0.707812,
2001-02-17, 00:48:00,VALID,918.505,VALID,0,VALID,88.7135,VALID,0,VALID,20.6173,VALID,218,VALID,1.00446,
2001-02-17, 00:49:00,VALID,918.483,VALID,0,VALID,88.716,VALID,0,VALID,20.6175,VALID,213,VALID,0.97903,
2001-02-17, 00:50:00,VALID,918.472,VALID,0,VALID,88.7593,VALID,0.0169808,VALID,20.6006,VALID,211,VALID,0.75641,
2001-02-17, 00:51:00,VALID,918.451,VALID,0,VALID,88.5355,VALID,0,VALID,20.6173,VALID,173,VALID,0.686133,
2001-02-17, 00:52:00,VALID,918.44,VALID,0,VALID,88.5787,VALID,0,VALID,20.6202,VALID,162,VALID,0.504112,
2001-02-17, 00:53:00,VALID,918.401,VALID,0,VALID,88.8941,VALID,0,VALID,20.5941,VALID,149,VALID,0.694257,
2001-02-17, 00:54:00,VALID,918.369,VALID,0,VALID,89.039,VALID,0.0169808,VALID,20.5626,VALID,173,VALID,0.686498,
2001-02-17, 00:55:00,VALID,918.325,VALID,0,VALID,89.1039,VALID,-0.0169808,VALID,20.5459,VALID,199,VALID,0.682893,
2001-02-17, 00:56:00,VALID,918.275,VALID,0,VALID,89.2183,VALID,0.0169808,VALID,20.5362,VALID,210,VALID,0.629808,
2001-02-17, 00:57:00,VALID,918.231,VALID,0,VALID,89.4141,VALID,0.0169808,VALID,20.5196,VALID,223,VALID,0.869196,
2001-02-17, 00:58:00,VALID,918.206,VALID,0,VALID,89.3251,VALID,0,VALID,20.5171,VALID,239,VALID,0.60625,
2001-02-17, 00:59:00,VALID,918.18,VALID,0,VALID,89.0072,VALID,-0.0169808,VALID,20.5233,VALID,231,VALID,1.13021,
2001-02-17, 01:00:00,VALID,918.176,VALID,0,VALID,88.7669,VALID,0,VALID,20.5497,VALID,230,VALID,1.21528,
2001-02-17, 01:01:00,VALID,918.173,VALID,0,VALID,88.9004,VALID,-0.0169808,VALID,20.5849,VALID,246,VALID,0.892103,
2001-02-17, 01:02:00,VALID,918.188,VALID,0,VALID,89.0797,VALID,0,VALID,20.5782,VALID,238,VALID,0.970806,
2001-02-17, 01:03:00,VALID,918.186,VALID,0,VALID,89.2832,VALID,0,VALID,20.5422,VALID,234,VALID,1.01267,
2001-02-17, 01:04:00,VALID,918.173,VALID,0,VALID,89.5095,VALID,0,VALID,20.5104,VALID,230,VALID,1.1098,
2001-02-17, 01:05:00,VALID,918.165,VALID,0,VALID,89.7562,VALID,0,VALID,20.4646,VALID,226,VALID,1.52321,
2001-02-17, 01:06:00,VALID,918.134,VALID,0,VALID,90.0385,VALID,0,VALID,20.4199,VALID,229,VALID,1.40995,
2001-02-17, 01:07:00,VALID,918.107,VALID,0,VALID,90.2877,VALID,0,VALID,20.3744,VALID,225,VALID,1.519,
2001-02-17, 01:08:00,VALID,918.078,VALID,0,VALID,90.6323,VALID,0,VALID,20.3424,VALID,219,VALID,1.35823,
2001-02-17, 01:09:00,VALID,918.056,VALID,0,VALID,90.9083,VALID,0,VALID,20.3006,VALID,226,VALID,1.1959,
2001-02-17, 01:10:00,VALID,918.04,VALID,0,VALID,91.0126,VALID,0,VALID,20.2715,VALID,222,VALID,1.52138,
2001-02-17, 01:11:00,VALID,918.015,VALID,0,VALID,90.9833,VALID,0,VALID,20.278,VALID,215,VALID,1.25432,
2001-02-17, 01:12:00,VALID,918.01,VALID,0,VALID,91.0685,VALID,0,VALID,20.2745,VALID,213,VALID,1.14941,
2001-02-17, 01:13:00,VALID,917.988,VALID,0,VALID,91.1524,VALID,0,VALID,20.2847,VALID,198,VALID,0.553486,
2001-02-17, 01:14:00,VALID,917.974,VALID,0,VALID,91.3419,VALID,0,VALID,20.2556,VALID,192,VALID,0.765179,
2001-02-17, 01:15:00,VALID,917.945,VALID,0,VALID,91.492,VALID,0,VALID,20.2263,VALID,191,VALID,0.867383,
2001-02-17, 01:16:00,VALID,917.923,VALID,0,VALID,91.6445,VALID,0.0339617,VALID,20.2005,VALID,199,VALID,0.993707,
2001-02-17, 01:17:00,VALID,917.901,VALID,0,VALID,91.6929,VALID,0,VALID,20.1714,VALID,201,VALID,0.776693,
2001-02-17, 01:18:00,VALID,917.878,VALID,0,VALID,91.8455,VALID,-0.0169808,VALID,20.1455,VALID,190,VALID,1.00741,
2001-02-17, 01:19:00,VALID,917.882,VALID,0,VALID,92.0247,VALID,-0.0169808,VALID,20.1267,VALID,179,VALID,1.15851,
2001-02-17, 01:20:00,VALID,917.878,VALID,0,VALID,92.1697,VALID,-0.0169808,VALID,20.0844,VALID,207,VALID,1.09211,
2001-02-17, 01:21:00,VALID,917.9,VALID,0,VALID,92.3732,VALID,-0.0169808,VALID,20.0359,VALID,218,VALID,0.910473,
2001-02-17, 01:22:00,VALID,917.94,VALID,0,VALID,92.4685,VALID,-0.0169808,VALID,20.0168,VALID,223,VALID,1.10221,
2001-02-17, 01:23:00,VALID,917.955,VALID,0,VALID,92.5487,VALID,0,VALID,20.0071,VALID,214,VALID,0.997255,
2001-02-17, 01:24:00,VALID,917.963,VALID,0,VALID,92.7737,VALID,-0.0169808,VALID,19.9808,VALID,213,VALID,1.13446,
2001-02-17, 01:25:00,VALID,917.968,VALID,0,VALID,92.7305,VALID,-0.0169808,VALID,19.9877,VALID,217,VALID,1.39363,
2001-02-17, 01:26:00,VALID,917.972,VALID,0,VALID,92.597,VALID,0,VALID,19.9743,VALID,227,VALID,1.66026,
2001-02-17, 01:27:00,VALID,917.971,VALID,0,VALID,92.6351,VALID,0,VALID,19.9741,VALID,219,VALID,1.3978,
2001-02-17, 01:28:00,VALID,917.952,VALID,0,VALID,92.6339,VALID,0,VALID,19.9875,VALID,217,VALID,1.35794,
2001-02-17, 01:29:00,VALID,917.943,VALID,0,VALID,92.6644,VALID,0,VALID,19.9875,VALID,216,VALID,1.17768,
2001-02-17, 01:30:00,VALID,917.943,VALID,0,VALID,92.747,VALID,-0.0169808,VALID,19.9783,VALID,221,VALID,1.25821,
2001-02-17, 01:31:00,VALID,917.93,VALID,0,VALID,92.6962,VALID,0,VALID,19.9644,VALID,225,VALID,1.15051,
2001-02-17, 01:32:00,VALID,917.933,VALID,0,VALID,92.5868,VALID,0,VALID,19.9748,VALID,214,VALID,0.987459,
2001-02-17, 01:33:00,VALID,917.923,VALID,0,VALID,92.3147,VALID,-0.0169808,VALID,19.9875,VALID,213,VALID,1.46305,
2001-02-17, 01:34:00,VALID,917.923,VALID,0,VALID,92.115,VALID,-0.0169808,VALID,20.0041,VALID,214,VALID,0.868273,
2001-02-17, 01:35:00,VALID,917.898,VALID,0,VALID,91.8976,VALID,0,VALID,20.0295,VALID,211,VALID,1.07747,
2001-02-17, 01:36:00,VALID,917.892,VALID,0,VALID,91.6064,VALID,-0.0169808,VALID,20.0553,VALID,206,VALID,0.962171,
2001-02-17, 01:37:00,VALID,917.878,VALID,0,VALID,91.2847,VALID,0,VALID,20.0717,VALID,200,VALID,1.07475,
2001-02-17, 01:38:00,VALID,917.87,VALID,0,VALID,91.0482,VALID,-0.0169808,VALID,20.0752,VALID,201,VALID,1.34241,
2001-02-17, 01:39:00,VALID,917.871,VALID,0,VALID,90.8574,VALID,-0.0509425,VALID,20.0847,VALID,196,VALID,1.17321,
2001-02-17, 01:40:00,VALID,917.878,VALID,0,VALID,90.701,VALID,-0.0169808,VALID,20.0847,VALID,205,VALID,1.03742,
2001-02-17, 01:41:00,VALID,917.868,VALID,0,VALID,90.4887,VALID,-0.0339617,VALID,20.0911,VALID,194,VALID,1.30749,
2001-02-17, 01:42:00,VALID,917.857,VALID,0,VALID,90.4047,VALID,-0.0679233,VALID,20.1075,VALID,194,VALID,1.53477,
2001-02-17, 01:43:00,VALID,917.872,VALID,0,VALID,90.2127,VALID,-0.0339617,VALID,20.1202,VALID,196,VALID,1.5662,
2001-02-17, 01:44:00,VALID,917.876,VALID,0,VALID,90.1746,VALID,-0.0509425,VALID,20.1662,VALID,197,VALID,1.30976,
2001-02-17, 01:45:00,VALID,917.878,VALID,0,VALID,90.0665,VALID,-0.0509425,VALID,20.1784,VALID,197,VALID,1.08033,
2001-02-17, 01:46:00,VALID,917.889,VALID,0,VALID,89.9368,VALID,-0.0509425,VALID,20.1789,VALID,207,VALID,1.5619,
2001-02-17, 01:47:00,VALID,917.894,VALID,0,VALID,89.4993,VALID,-0.0679233,VALID,20.1948,VALID,217,VALID,1.29627,
2001-02-17, 01:48:00,VALID,917.888,VALID,0,VALID,89.596,VALID,-0.0509425,VALID,20.2112,VALID,221,VALID,1.06451,
2001-02-17, 01:49:00,VALID,917.881,VALID,0,VALID,89.8567,VALID,-0.0509425,VALID,20.1953,VALID,223,VALID,1.31016,
2001-02-17, 01:50:00,VALID,917.859,VALID,0,VALID,89.994,VALID,-0.0679233,VALID,20.1761,VALID,215,VALID,1.22266,
2001-02-17, 01:51:00,VALID,917.847,VALID,0,VALID,90.0627,VALID,-0.101885,VALID,20.1403,VALID,210,VALID,1.18967,
2001-02-17, 01:52:00,VALID,917.841,VALID,0,VALID,90.008,VALID,-0.0849042,VALID,20.1309,VALID,201,VALID,1.16047,
2001-02-17, 01:53:00,VALID,917.829,VALID,0,VALID,90.0131,VALID,-0.0849042,VALID,20.1145,VALID,213,VALID,0.962377,
2001-02-17, 01:54:00,VALID,917.816,VALID,0,VALID,89.6723,VALID,-0.101885,VALID,20.1299,VALID,217,VALID,1.36339,
2001-02-17, 01:55:00,VALID,917.814,VALID,0,VALID,89.4396,VALID,-0.0849042,VALID,20.1823,VALID,203,VALID,0.794341,
2001-02-17, 01:56:00,VALID,917.816,VALID,0,VALID,89.4637,VALID,-0.0679233,VALID,20.2144,VALID,217,VALID,0.821429,
2001-02-17, 01:57:00,VALID,917.833,VALID,0,VALID,89.9482,VALID,-0.0679233,VALID,20.2017,VALID,235,VALID,0.996711,
2001-02-17, 01:58:00,VALID,917.844,VALID,0,VALID,90.3259,VALID,-0.0339617,VALID,20.1694,VALID,226,VALID,1.05089,
2001-02-17, 01:59:00,VALID,917.865,VALID,0,VALID,90.64,VALID,-0.0849042,VALID,20.108,VALID,242,VALID,1.20941,
2001-02-17, 02:00:00,VALID,917.875,VALID,0,VALID,90.9261,VALID,-0.101885,VALID,20.0526,VALID,232,VALID,0.810547,
2001-02-17, 02:01:00,VALID,917.886,VALID,0,VALID,91.2389,VALID,-0.0679233,VALID,20.0238,VALID,233,VALID,0.934827,
2001-02-17, 02:02:00,VALID,917.883,VALID,0,VALID,91.2186,VALID,-0.0509425,VALID,19.9882,VALID,203,VALID,0.673931,
2001-02-17, 02:03:00,VALID,917.87,VALID,0,VALID,91.0215,VALID,-0.0509425,VALID,19.9527,VALID,186,VALID,0.304688,
2001-02-17, 02:04:00,VALID,917.848,VALID,0,VALID,91.1028,VALID,-0.0509425,VALID,19.9201,VALID,204,VALID,0.109976,
2001-02-17, 02:05:00,VALID,917.851,VALID,0,VALID,91.305,VALID,-0.0849042,VALID,19.9015,VALID,232,VALID,0.362277,
2001-02-17, 02:06:00,VALID,917.855,VALID,0,VALID,91.5428,VALID,-0.0679233,VALID,19.8821,VALID,244,VALID,0.376563,
2001-02-17, 02:07:00,VALID,917.874,VALID,0,VALID,91.6356,VALID,-0.0849042,VALID,19.8523,VALID,259,VALID,0.597005,
2001-02-17, 02:08:00,VALID,917.878,VALID,0,VALID,91.703,VALID,-0.0509425,VALID,19.8431,VALID,260,VALID,0.82053,
2001-02-17, 02:09:00,VALID,917.85,VALID,0,VALID,91.6573,VALID,-0.0339617,VALID,19.817,VALID,209,VALID,0.672276,
2001-02-17, 02:10:00,VALID,917.833,VALID,0,VALID,91.5263,VALID,-0.0679233,VALID,19.8106,VALID,186,VALID,0.105263,
2001-02-17, 02:11:00,VALID,917.805,VALID,0,VALID,91.6217,VALID,-0.0849042,VALID,19.7909,VALID,208,VALID,0.310238,
2001-02-17, 02:12:00,VALID,917.777,VALID,0,VALID,91.7107,VALID,-0.0849042,VALID,19.7949,VALID,250,VALID,0.418919,
2001-02-17, 02:13:00,VALID,917.742,VALID,0,VALID,92.0235,VALID,-0.0679233,VALID,19.7594,VALID,240,VALID,0.459418,
2001-02-17, 02:14:00,VALID,917.721,VALID,0,VALID,92.1074,VALID,-0.0679233,VALID,19.7497,VALID,232,VALID,0.334459,
2001-02-17, 02:15:00,VALID,917.695,VALID,0,VALID,92.1773,VALID,-0.0679233,VALID,19.7333,VALID,255,VALID,0.0215872,
2001-02-17, 02:16:00,VALID,917.661,VALID,0,VALID,92.288,VALID,-0.0679233,VALID,19.7069,VALID,276,VALID,0.257412,
2001-02-17, 02:17:00,VALID,917.631,VALID,0,VALID,92.5372,VALID,-0.0849042,VALID,19.6888,VALID,296,VALID,0.117188,
2001-02-17, 02:18:00,VALID,917.583,VALID,0,VALID,92.4762,VALID,-0.0509425,VALID,19.6329,VALID,296,VALID,0,
2001-02-17, 02:19:00,VALID,917.554,VALID,0,VALID,93.1399,VALID,-0.0679233,VALID,19.6036,VALID,248,VALID,0.248766,
2001-02-17, 02:20:00,VALID,917.513,VALID,0,VALID,93.3332,VALID,-0.0849042,VALID,19.5946,VALID,249,VALID,0.236779,
2001-02-17, 02:21:00,VALID,917.492,VALID,0,VALID,93.4273,VALID,-0.0679233,VALID,19.5596,VALID,255,VALID,0,
2001-02-17, 02:22:00,VALID,917.472,VALID,0,VALID,93.4718,VALID,-0.0679233,VALID,19.5044,VALID,265,VALID,0.0413603,
2001-02-17, 02:23:00,VALID,917.466,VALID,0,VALID,93.9245,VALID,0.0169808,VALID,19.4833,VALID,292,VALID,0.383018,
2001-02-17, 02:24:00,VALID,917.454,VALID,0,VALID,94.1725,VALID,0.0339617,VALID,19.4378,VALID,303,VALID,0.342694,
2001-02-17, 02:25:00,VALID,917.461,VALID,0,VALID,94.3124,VALID,0.0339617,VALID,19.3857,VALID,296,VALID,0.347439,
2001-02-17, 02:26:00,VALID,917.459,VALID,0,VALID,94.6748,VALID,0.0169808,VALID,19.3702,VALID,288,VALID,0.324653,
2001-02-17, 02:27:00,VALID,917.437,VALID,0,VALID,94.5184,VALID,0.0169808,VALID,19.3315,VALID,287,VALID,0.0246711,
2001-02-17, 02:28:00,VALID,917.431,VALID,0,VALID,94.4294,VALID,-0.0169808,VALID,19.2967,VALID,219,VALID,0.464949,
2001-02-17, 02:29:00,VALID,917.404,VALID,0,VALID,94.5997,VALID,0.0339617,VALID,19.2607,VALID,215,VALID,0.4,
2001-02-17, 02:30:00,VALID,917.401,VALID,0,VALID,95.0168,VALID,0.0169808,VALID,19.209,VALID,227,VALID,0.816071,
2001-02-17, 02:31:00,VALID,917.401,VALID,0,VALID,95.6132,VALID,0.0169808,VALID,19.1958,VALID,238,VALID,0.722245,
2001-02-17, 02:32:00,VALID,917.401,VALID,0,VALID,95.762,VALID,0.0169808,VALID,19.1963,VALID,202,VALID,0.176082,
2001-02-17, 02:33:00,VALID,917.424,VALID,0,VALID,95.645,VALID,0.0339617,VALID,19.1802,VALID,219,VALID,0.576953,
2001-02-17, 02:34:00,VALID,917.437,VALID,0,VALID,96.0061,VALID,0,VALID,19.1802,VALID,207,VALID,0.582237,
2001-02-17, 02:35:00,VALID,917.459,VALID,0,VALID,95.9159,VALID,0.0169808,VALID,19.1573,VALID,236,VALID,0.637458,
2001-02-17, 02:36:00,VALID,917.452,VALID,0,VALID,96.3202,VALID,0.0339617,VALID,19.1668,VALID,223,VALID,0.535857,
2001-02-17, 02:37:00,VALID,917.473,VALID,0,VALID,96.291,VALID,0.0339617,VALID,19.1866,VALID,234,VALID,0.481971,
2001-02-17, 02:38:00,VALID,917.467,VALID,0,VALID,96.2668,VALID,0,VALID,19.1739,VALID,228,VALID,1.21414,
2001-02-17, 02:39:00,VALID,917.472,VALID,0,VALID,96.1422,VALID,0.0169808,VALID,19.1675,VALID,236,VALID,1.00848,
2001-02-17, 02:40:00,VALID,917.46,VALID,0,VALID,96.263,VALID,0.0339617,VALID,19.1638,VALID,237,VALID,1.25176,
2001-02-17, 02:41:00,VALID,917.446,VALID,0,VALID,96.4868,VALID,0.0169808,VALID,19.1672,VALID,234,VALID,1.49674,
2001-02-17, 02:42:00,VALID,917.433,VALID,0,VALID,96.525,VALID,0,VALID,19.1869,VALID,238,VALID,1.35547,
2001-02-17, 02:43:00,VALID,917.396,VALID,0,VALID,96.6,VALID,0.0169808,VALID,19.1963,VALID,229,VALID,1.23142,
2001-02-17, 02:44:00,VALID,917.37,VALID,0,VALID,96.2948,VALID,0.0169808,VALID,19.1901,VALID,226,VALID,1.30715,
2001-02-17, 02:45:00,VALID,917.335,VALID,0,VALID,96.4461,VALID,0,VALID,19.1806,VALID,238,VALID,1.27639,
2001-02-17, 02:46:00,VALID,917.313,VALID,0,VALID,96.4538,VALID,0.0169808,VALID,19.1677,VALID,228,VALID,0.786529,
2001-02-17, 02:47:00,VALID,917.318,VALID,0,VALID,96.4016,VALID,0,VALID,19.1481,VALID,226,VALID,1.07478,
2001-02-17, 02:48:00,VALID,917.317,VALID,0,VALID,96.5847,VALID,0,VALID,19.132,VALID,231,VALID,1.61184,
2001-02-17, 02:49:00,VALID,917.312,VALID,0,VALID,96.6915,VALID,-0.0169808,VALID,19.1483,VALID,230,VALID,1.29392,
2001-02-17, 02:50:00,VALID,917.302,VALID,0,VALID,96.4474,VALID,0.0339617,VALID,19.161,VALID,225,VALID,1.23095,
2001-02-17, 02:51:00,VALID,917.302,VALID,0,VALID,96.2732,VALID,0.0339617,VALID,19.1707,VALID,231,VALID,1.01758,
2001-02-17, 02:52:00,VALID,917.293,VALID,0,VALID,96.202,VALID,0,VALID,19.1799,VALID,237,VALID,0.884868,
2001-02-17, 02:53:00,VALID,917.3,VALID,0,VALID,96.2007,VALID,0,VALID,19.2132,VALID,182,VALID,0.4998,
2001-02-17, 02:54:00,VALID,917.299,VALID,0,VALID,95.8637,VALID,0,VALID,19.2127,VALID,126,VALID,0.588477,
2001-02-17, 02:55:00,VALID,917.284,VALID,0,VALID,95.631,VALID,0.0339617,VALID,19.206,VALID,98,VALID,0.204527,
2001-02-17, 02:56:00,VALID,917.283,VALID,0,VALID,95.5306,VALID,0.0169808,VALID,19.2097,VALID,59,VALID,0.314732,
2001-02-17, 02:57:00,VALID,917.277,VALID,0,VALID,95.5306,VALID,0.0339617,VALID,19.2028,VALID,51,VALID,0.249219,
2001-02-17, 02:58:00,VALID,917.296,VALID,0,VALID,95.57,VALID,0.0339617,VALID,19.2095,VALID,22,VALID,0.291233,
2001-02-17, 02:59:00,VALID,917.282,VALID,0,VALID,95.5229,VALID,0.0509425,VALID,19.1896,VALID,354,VALID,0.239583,
2001-02-17, 03:00:00,VALID,917.282,VALID,0,VALID,95.5395,VALID,0.0339617,VALID,19.1834,VALID,54,VALID,0.817308,
2001-02-17, 03:01:00,VALID,917.269,VALID,0,VALID,95.3246,VALID,0,VALID,19.1608,VALID,83,VALID,0.919202,
2001-02-17, 03:02:00,VALID,917.27,VALID,0,VALID,95.0524,VALID,0.0169808,VALID,19.1064,VALID,87,VALID,0.626028,
2001-02-17, 03:03:00,VALID,917.281,VALID,0,VALID,95.1605,VALID,0.0169808,VALID,19.0704,VALID,86,VALID,0.692779,
2001-02-17, 03:04:00,VALID,917.294,VALID,0,VALID,95.2648,VALID,0.0509425,VALID,19.0485,VALID,92,VALID,0.322917,
2001-02-17, 03:05:00,VALID,917.319,VALID,0,VALID,95.6005,VALID,0.0169808,VALID,19.0254,VALID,119,VALID,0.257813,
2001-02-17, 03:06:00,VALID,917.336,VALID,0,VALID,95.7544,VALID,0,VALID,19.0221,VALID,146,VALID,0.0561266,
2001-02-17, 03:07:00,VALID,917.351,VALID,0,VALID,96.1206,VALID,0.0169808,VALID,19.0448,VALID,149,VALID,0.109175,
2001-02-17, 03:08:00,VALID,917.349,VALID,0,VALID,96.2007,VALID,-0.0679233,VALID,19.0561,VALID,149,VALID,0.00220353,
2001-02-17, 03:09:00,VALID,917.351,VALID,0,VALID,96.2172,VALID,-0.0849042,VALID,19.0626,VALID,149,VALID,0,
2001-02-17, 03:10:00,VALID,917.339,VALID,0,VALID,95.5802,VALID,-0.0509425,VALID,19.0363,VALID,149,VALID,0,
2001-02-17, 03:11:00,VALID,917.299,VALID,0,VALID,94.5362,VALID,-0.0679233,VALID,18.9565,VALID,149,VALID,0,
2001-02-17, 03:12:00,VALID,917.275,VALID,0,VALID,94.9037,VALID,-0.0849042,VALID,18.8819,VALID,149,VALID,0,
2001-02-17, 03:13:00,VALID,917.251,VALID,0,VALID,95.5318,VALID,-0.0849042,VALID,18.8556,VALID,204,VALID,0.241728,
2001-02-17, 03:14:00,VALID,917.243,VALID,0,VALID,96.1117,VALID,-0.101885,VALID,18.8559,VALID,226,VALID,0.603002,
2001-02-17, 03:15:00,VALID,917.263,VALID,0,VALID,96.3469,VALID,-0.0849042,VALID,18.8556,VALID,235,VALID,0.428843,
2001-02-17, 03:16:00,VALID,917.264,VALID,0,VALID,96.202,VALID,-0.101885,VALID,18.8561,VALID,215,VALID,0.277778,
2001-02-17, 03:17:00,VALID,917.294,VALID,0,VALID,95.9095,VALID,-0.0849042,VALID,18.8275,VALID,214,VALID,0.167969,
2001-02-17, 03:18:00,VALID,917.286,VALID,0,VALID,96.118,VALID,-0.0849042,VALID,18.8014,VALID,211,VALID,0.105058,
2001-02-17, 03:19:00,VALID,917.263,VALID,0,VALID,96.3368,VALID,-0.0849042,VALID,18.7915,VALID,192,VALID,0.315667,
2001-02-17, 03:20:00,VALID,917.244,VALID,0,VALID,96.6458,VALID,-0.101885,VALID,18.8076,VALID,199,VALID,0.417634,
2001-02-17, 03:21:00,VALID,917.201,VALID,0,VALID,96.8047,VALID,-0.101885,VALID,18.8429,VALID,188,VALID,0.822545,
2001-02-17, 03:22:00,VALID,917.188,VALID,0,VALID,96.7004,VALID,-0.0849042,VALID,18.8914,VALID,192,VALID,1.03557,
2001-02-17, 03:23:00,VALID,917.176,VALID,0,VALID,96.2528,VALID,-0.0339617,VALID,18.9401,VALID,182,VALID,0.565104,
2001-02-17, 03:24:00,VALID,917.187,VALID,0,VALID,96.029,VALID,-0.0339617,VALID,18.9528,VALID,208,VALID,0.802148,
2001-02-17, 03:25:00,VALID,917.205,VALID,0,VALID,96.1015,VALID,-0.0849042,VALID,19.0017,VALID,204,VALID,0.754317,
2001-02-17, 03:26:00,VALID,917.238,VALID,0,VALID,95.879,VALID,-0.0169808,VALID,19.0402,VALID,210,VALID,0.731419,
2001-02-17, 03:27:00,VALID,917.262,VALID,0,VALID,95.809,VALID,-0.0169808,VALID,19.0757,VALID,217,VALID,0.958333,
2001-02-17, 03:28:00,VALID,917.268,VALID,0,VALID,95.8701,VALID,-0.0169808,VALID,19.1076,VALID,216,VALID,0.844151,
2001-02-17, 03:29:00,VALID,917.278,VALID,0,VALID,95.8205,VALID,-0.0169808,VALID,19.1237,VALID,228,VALID,0.594351,
2001-02-17, 03:30:00,VALID,917.275,VALID,0,VALID,95.8192,VALID,-0.0169808,VALID,19.147,VALID,225,VALID,1.17478,
2001-02-17, 03:31:00,VALID,917.278,VALID,0,VALID,95.5662,VALID,-0.0169808,VALID,19.1595,VALID,181,VALID,1.05039,
2001-02-17, 03:32:00,VALID,917.284,VALID,0,VALID,95.7073,VALID,-0.0169808,VALID,19.192,VALID,204,VALID,1.27365,